Year,Month,Day,Hour,Minute,Value (Times are PST for temperature in C)
2015,08,26,00,00,10.50
2015,08,26,00,01,10.50
2015,08,26,00,02,10.40
2015,08,26,00,03,10.40
2015,08,26,00,04,10.40
2015,08,26,00,05,10.40
2015,08,26,00,06,10.40
2015,08,26,00,07,10.30
2015,08,26,00,08,10.30
2015,08,26,00,09,10.30
2015,08,26,00,10,10.30
2015,08,26,00,11,10.30
2015,08,26,00,12,10.30
2015,08,26,00,13,10.30
2015,08,26,00,14,10.40
2015,08,26,00,15,10.40
2015,08,26,00,16,10.40
2015,08,26,00,17,10.40
2015,08,26,00,18,10.40
2015,08,26,00,19,10.40
2015,08,26,00,20,10.40
2015,08,26,00,21,10.40
2015,08,26,00,22,10.40
2015,08,26,00,23,10.40
2015,08,26,00,24,10.50
2015,08,26,00,25,10.50
2015,08,26,00,26,10.50
2015,08,26,00,27,10.50
2015,08,26,00,28,10.40
2015,08,26,00,29,10.40
2015,08,26,00,30,10.40
2015,08,26,00,31,10.40
2015,08,26,00,32,10.40
2015,08,26,00,33,10.30
2015,08,26,00,34,10.30
2015,08,26,00,35,10.30
2015,08,26,00,36,10.20
2015,08,26,00,37,10.20
2015,08,26,00,38,10.20
2015,08,26,00,39,10.10
2015,08,26,00,40,10.10
2015,08,26,00,41,10.10
2015,08,26,00,42,10.10
2015,08,26,00,43,10.00
2015,08,26,00,44,10.00
2015,08,26,00,45,10.00
2015,08,26,00,46,10.00
2015,08,26,00,47,10.10
2015,08,26,00,48,10.10
2015,08,26,00,49,10.10
2015,08,26,00,50,10.10
2015,08,26,00,51,10.20
2015,08,26,00,52,10.20
2015,08,26,00,53,10.20
2015,08,26,00,54,10.20
2015,08,26,00,55,10.20
2015,08,26,00,56,10.20
2015,08,26,00,57,10.20
2015,08,26,00,58,10.20
2015,08,26,00,59,10.20
2015,08,26,01,00,10.20
2015,08,26,01,01,10.20
2015,08,26,01,02,10.20
2015,08,26,01,03,10.20
2015,08,26,01,04,10.10
2015,08,26,01,05,10.10
2015,08,26,01,06,10.10
2015,08,26,01,07,10.10
2015,08,26,01,08,10.10
2015,08,26,01,09,10.10
2015,08,26,01,10,10.00
2015,08,26,01,11,10.00
2015,08,26,01,12,10.00
2015,08,26,01,13,9.90
2015,08,26,01,14,9.90
2015,08,26,01,15,9.90
2015,08,26,01,16,9.90
2015,08,26,01,17,9.80
2015,08,26,01,18,9.80
2015,08,26,01,19,9.80
2015,08,26,01,20,9.80
2015,08,26,01,21,9.70
2015,08,26,01,22,9.70
2015,08,26,01,23,9.70
2015,08,26,01,24,9.60
2015,08,26,01,25,9.60
2015,08,26,01,26,9.60
2015,08,26,01,27,9.50
2015,08,26,01,28,9.50
2015,08,26,01,29,9.50
2015,08,26,01,30,9.50
2015,08,26,01,31,9.40
2015,08,26,01,32,9.40
2015,08,26,01,33,9.40
2015,08,26,01,34,9.40
2015,08,26,01,35,9.40
2015,08,26,01,36,9.30
2015,08,26,01,37,9.30
2015,08,26,01,38,9.30
2015,08,26,01,39,9.30
2015,08,26,01,40,9.30
2015,08,26,01,41,9.30
2015,08,26,01,42,9.30
2015,08,26,01,43,9.30
2015,08,26,01,44,9.30
2015,08,26,01,45,9.30
2015,08,26,01,46,9.30
2015,08,26,01,47,9.30
2015,08,26,01,48,9.30
2015,08,26,01,49,9.30
2015,08,26,01,50,9.30
2015,08,26,01,51,9.30
2015,08,26,01,52,9.20
2015,08,26,01,53,9.20
2015,08,26,01,54,9.20
2015,08,26,01,55,9.20
2015,08,26,01,56,9.20
2015,08,26,01,57,9.20
2015,08,26,01,58,9.10
2015,08,26,01,59,9.10
2015,08,26,02,00,9.10
2015,08,26,02,01,9.10
2015,08,26,02,02,9.10
2015,08,26,02,03,9.10
2015,08,26,02,04,9.10
2015,08,26,02,05,9.00
2015,08,26,02,06,9.00
2015,08,26,02,07,9.00
2015,08,26,02,08,9.00
2015,08,26,02,09,9.00
2015,08,26,02,10,8.90
2015,08,26,02,11,8.90
2015,08,26,02,12,8.90
2015,08,26,02,13,8.90
2015,08,26,02,14,8.90
2015,08,26,02,15,8.90
2015,08,26,02,16,8.90
2015,08,26,02,17,8.90
2015,08,26,02,18,8.90
2015,08,26,02,19,8.90
2015,08,26,02,20,8.90
2015,08,26,02,21,8.90
2015,08,26,02,22,8.90
2015,08,26,02,23,8.90
2015,08,26,02,24,8.80
2015,08,26,02,25,8.80
2015,08,26,02,26,8.80
2015,08,26,02,27,8.80
2015,08,26,02,28,8.80
2015,08,26,02,29,8.80
2015,08,26,02,30,8.80
2015,08,26,02,31,8.80
2015,08,26,02,32,8.80
2015,08,26,02,33,8.80
2015,08,26,02,34,8.80
2015,08,26,02,35,8.80
2015,08,26,02,36,8.70
2015,08,26,02,37,8.70
2015,08,26,02,38,8.70
2015,08,26,02,39,8.70
2015,08,26,02,40,8.70
2015,08,26,02,41,8.60
2015,08,26,02,42,8.60
2015,08,26,02,43,8.60
2015,08,26,02,44,8.60
2015,08,26,02,45,8.60
2015,08,26,02,46,8.60
2015,08,26,02,47,8.60
2015,08,26,02,48,8.60
2015,08,26,02,49,8.60
2015,08,26,02,50,8.60
2015,08,26,02,51,8.70
2015,08,26,02,52,8.70
2015,08,26,02,53,8.70
2015,08,26,02,54,8.70
2015,08,26,02,55,8.70
2015,08,26,02,56,8.70
2015,08,26,02,57,8.70
2015,08,26,02,58,8.70
2015,08,26,02,59,8.70
2015,08,26,03,00,8.70
2015,08,26,03,01,8.70
2015,08,26,03,02,8.70
2015,08,26,03,03,8.70
2015,08,26,03,04,8.60
2015,08,26,03,05,8.60
2015,08,26,03,06,8.60
2015,08,26,03,07,8.60
2015,08,26,03,08,8.60
2015,08,26,03,09,8.60
2015,08,26,03,10,8.60
2015,08,26,03,11,8.60
2015,08,26,03,12,8.60
2015,08,26,03,13,8.60
2015,08,26,03,14,8.60
2015,08,26,03,15,8.60
2015,08,26,03,16,8.60
2015,08,26,03,17,8.60
2015,08,26,03,18,8.60
2015,08,26,03,19,8.50
2015,08,26,03,20,8.50
2015,08,26,03,21,8.50
2015,08,26,03,22,8.40
2015,08,26,03,23,8.40
2015,08,26,03,24,8.40
2015,08,26,03,25,8.40
2015,08,26,03,26,8.50
2015,08,26,03,27,8.50
2015,08,26,03,28,8.50
2015,08,26,03,29,8.50
2015,08,26,03,30,8.50
2015,08,26,03,31,8.50
2015,08,26,03,32,8.50
2015,08,26,03,33,8.50
2015,08,26,03,34,8.50
2015,08,26,03,35,8.50
2015,08,26,03,36,8.50
2015,08,26,03,37,8.50
2015,08,26,03,38,8.50
2015,08,26,03,39,8.50
2015,08,26,03,40,8.50
2015,08,26,03,41,8.50
2015,08,26,03,42,8.50
2015,08,26,03,43,8.60
2015,08,26,03,44,8.60
2015,08,26,03,45,8.70
2015,08,26,03,46,8.70
2015,08,26,03,47,8.80
2015,08,26,03,48,8.80
2015,08,26,03,49,8.80
2015,08,26,03,50,8.90
2015,08,26,03,51,8.90
2015,08,26,03,52,8.90
2015,08,26,03,53,8.90
2015,08,26,03,54,8.80
2015,08,26,03,55,8.80
2015,08,26,03,56,8.80
2015,08,26,03,57,8.70
2015,08,26,03,58,8.70
2015,08,26,03,59,8.70
2015,08,26,04,00,8.60
2015,08,26,04,01,8.60
2015,08,26,04,02,8.60
2015,08,26,04,03,8.50
2015,08,26,04,04,8.50
2015,08,26,04,05,8.40
2015,08,26,04,06,8.40
2015,08,26,04,07,8.40
2015,08,26,04,08,8.40
2015,08,26,04,09,8.40
2015,08,26,04,10,8.40
2015,08,26,04,11,8.40
2015,08,26,04,12,8.40
2015,08,26,04,13,8.40
2015,08,26,04,14,8.40
2015,08,26,04,15,8.50
2015,08,26,04,16,8.50
2015,08,26,04,17,8.50
2015,08,26,04,18,8.50
2015,08,26,04,19,8.50
2015,08,26,04,20,8.50
2015,08,26,04,21,8.50
2015,08,26,04,22,8.50
2015,08,26,04,23,8.50
2015,08,26,04,24,8.50
2015,08,26,04,25,8.50
2015,08,26,04,26,8.50
2015,08,26,04,27,8.50
2015,08,26,04,28,8.50
2015,08,26,04,29,8.50
2015,08,26,04,30,8.60
2015,08,26,04,31,8.50
2015,08,26,04,32,8.50
2015,08,26,04,33,8.50
2015,08,26,04,34,8.50
2015,08,26,04,35,8.40
2015,08,26,04,36,8.40
2015,08,26,04,37,8.40
2015,08,26,04,38,8.40
2015,08,26,04,39,8.40
2015,08,26,04,40,8.40
2015,08,26,04,41,8.40
2015,08,26,04,42,8.40
2015,08,26,04,43,8.50
2015,08,26,04,44,8.50
2015,08,26,04,45,8.60
2015,08,26,04,46,8.70
2015,08,26,04,47,8.70
2015,08,26,04,48,8.70
2015,08,26,04,49,8.60
2015,08,26,04,50,8.60
2015,08,26,04,51,8.60
2015,08,26,04,52,8.60
2015,08,26,04,53,8.60
2015,08,26,04,54,8.60
2015,08,26,04,55,8.60
2015,08,26,04,56,8.70
2015,08,26,04,57,8.80
2015,08,26,04,58,8.90
2015,08,26,04,59,8.90
2015,08,26,05,00,9.00
2015,08,26,05,01,9.10
2015,08,26,05,02,9.10
2015,08,26,05,03,9.20
2015,08,26,05,04,9.20
2015,08,26,05,05,9.20
2015,08,26,05,06,9.30
2015,08,26,05,07,9.30
2015,08,26,05,08,9.30
2015,08,26,05,09,9.40
2015,08,26,05,10,9.40
2015,08,26,05,11,9.40
2015,08,26,05,12,9.40
2015,08,26,05,13,9.40
2015,08,26,05,14,9.40
2015,08,26,05,15,9.40
2015,08,26,05,16,9.30
2015,08,26,05,17,9.30
2015,08,26,05,18,9.30
2015,08,26,05,19,9.20
2015,08,26,05,20,9.20
2015,08,26,05,21,9.20
2015,08,26,05,22,9.20
2015,08,26,05,23,9.10
2015,08,26,05,24,9.10
2015,08,26,05,25,9.10
2015,08,26,05,26,9.10
2015,08,26,05,27,9.10
2015,08,26,05,28,9.10
2015,08,26,05,29,9.10
2015,08,26,05,30,9.10
2015,08,26,05,31,9.10
2015,08,26,05,32,9.10
2015,08,26,05,33,9.20
2015,08,26,05,34,9.20
2015,08,26,05,35,9.30
2015,08,26,05,36,9.30
2015,08,26,05,37,9.40
2015,08,26,05,38,9.40
2015,08,26,05,39,9.40
2015,08,26,05,40,9.30
2015,08,26,05,41,9.30
2015,08,26,05,42,9.30
2015,08,26,05,43,9.30
2015,08,26,05,44,9.30
2015,08,26,05,45,9.30
2015,08,26,05,46,9.30
2015,08,26,05,47,9.30
2015,08,26,05,48,9.30
2015,08,26,05,49,9.30
2015,08,26,05,50,9.30
2015,08,26,05,51,9.30
2015,08,26,05,52,9.30
2015,08,26,05,53,9.30
2015,08,26,05,54,9.40
2015,08,26,05,55,9.40
2015,08,26,05,56,9.50
2015,08,26,05,57,9.60
2015,08,26,05,58,9.70
2015,08,26,05,59,9.80
2015,08,26,06,00,9.90
2015,08,26,06,01,9.90
2015,08,26,06,02,9.90
2015,08,26,06,03,9.90
2015,08,26,06,04,9.90
2015,08,26,06,05,9.90
2015,08,26,06,06,9.90
2015,08,26,06,07,9.90
2015,08,26,06,08,9.80
2015,08,26,06,09,9.80
2015,08,26,06,10,9.80
2015,08,26,06,11,9.80
2015,08,26,06,12,9.80
2015,08,26,06,13,9.80
2015,08,26,06,14,9.80
2015,08,26,06,15,9.70
2015,08,26,06,16,9.70
2015,08,26,06,17,9.60
2015,08,26,06,18,9.60
2015,08,26,06,19,9.60
2015,08,26,06,20,9.50
2015,08,26,06,21,9.50
2015,08,26,06,22,9.50
2015,08,26,06,23,9.50
2015,08,26,06,24,9.40
2015,08,26,06,25,9.40
2015,08,26,06,26,9.40
2015,08,26,06,27,9.50
2015,08,26,06,28,9.50
2015,08,26,06,29,9.60
2015,08,26,06,30,9.60
2015,08,26,06,31,9.60
2015,08,26,06,32,9.70
2015,08,26,06,33,9.70
2015,08,26,06,34,9.70
2015,08,26,06,35,9.70
2015,08,26,06,36,9.70
2015,08,26,06,37,9.70
2015,08,26,06,38,9.80
2015,08,26,06,39,9.80
2015,08,26,06,40,9.80
2015,08,26,06,41,9.80
2015,08,26,06,42,9.80
2015,08,26,06,43,9.90
2015,08,26,06,44,9.90
2015,08,26,06,45,9.90
2015,08,26,06,46,9.90
2015,08,26,06,47,9.90
2015,08,26,06,48,10.00
2015,08,26,06,49,10.00
2015,08,26,06,50,10.00
2015,08,26,06,51,10.10
2015,08,26,06,52,10.10
2015,08,26,06,53,10.10
2015,08,26,06,54,10.10
2015,08,26,06,55,10.10
2015,08,26,06,56,10.10
2015,08,26,06,57,10.10
2015,08,26,06,58,10.10
2015,08,26,06,59,10.10
2015,08,26,07,00,10.10
2015,08,26,07,01,10.20
2015,08,26,07,02,10.20
2015,08,26,07,03,10.20
2015,08,26,07,04,10.20
2015,08,26,07,05,10.30
2015,08,26,07,06,10.30
2015,08,26,07,07,10.30
2015,08,26,07,08,10.30
2015,08,26,07,09,10.30
2015,08,26,07,10,10.30
2015,08,26,07,11,10.30
2015,08,26,07,12,10.40
2015,08,26,07,13,10.40
2015,08,26,07,14,10.40
2015,08,26,07,15,10.40
2015,08,26,07,16,10.50
2015,08,26,07,17,10.50
2015,08,26,07,18,10.60
2015,08,26,07,19,10.70
2015,08,26,07,20,10.80
2015,08,26,07,21,10.90
2015,08,26,07,22,11.00
2015,08,26,07,23,11.10
2015,08,26,07,24,11.30
2015,08,26,07,25,11.40
2015,08,26,07,26,11.50
2015,08,26,07,27,11.70
2015,08,26,07,28,11.90
2015,08,26,07,29,12.10
2015,08,26,07,30,12.30
2015,08,26,07,31,12.40
2015,08,26,07,32,12.60
2015,08,26,07,33,12.80
2015,08,26,07,34,12.90
2015,08,26,07,35,13.10
2015,08,26,07,36,13.20
2015,08,26,07,37,13.40
2015,08,26,07,38,13.50
2015,08,26,07,39,13.60
2015,08,26,07,40,13.60
2015,08,26,07,41,13.70
2015,08,26,07,42,13.70
2015,08,26,07,43,13.80
2015,08,26,07,44,13.80
2015,08,26,07,45,13.80
2015,08,26,07,46,13.80
2015,08,26,07,47,13.80
2015,08,26,07,48,13.80
2015,08,26,07,49,13.70
2015,08,26,07,50,13.70
2015,08,26,07,51,13.70
2015,08,26,07,52,13.70
2015,08,26,07,53,13.70
2015,08,26,07,54,13.70
2015,08,26,07,55,13.70
2015,08,26,07,56,13.80
2015,08,26,07,57,13.80
2015,08,26,07,58,13.80
2015,08,26,07,59,13.80
2015,08,26,08,00,13.80
2015,08,26,08,01,13.80
2015,08,26,08,02,13.80
2015,08,26,08,03,13.80
2015,08,26,08,04,13.80
2015,08,26,08,05,13.80
2015,08,26,08,06,13.90
2015,08,26,08,07,14.00
2015,08,26,08,08,14.00
2015,08,26,08,09,14.10
2015,08,26,08,10,14.20
2015,08,26,08,11,14.20
2015,08,26,08,12,14.30
2015,08,26,08,13,14.40
2015,08,26,08,14,14.50
2015,08,26,08,15,14.50
2015,08,26,08,16,14.60
2015,08,26,08,17,14.70
2015,08,26,08,18,14.70
2015,08,26,08,19,14.70
2015,08,26,08,20,14.70
2015,08,26,08,21,14.80
2015,08,26,08,22,14.80
2015,08,26,08,23,14.80
2015,08,26,08,24,14.80
2015,08,26,08,25,14.80
2015,08,26,08,26,14.90
2015,08,26,08,27,14.90
2015,08,26,08,28,14.90
2015,08,26,08,29,14.90
2015,08,26,08,30,15.00
2015,08,26,08,31,15.00
2015,08,26,08,32,15.10
2015,08,26,08,33,15.10
2015,08,26,08,34,15.20
2015,08,26,08,35,15.30
2015,08,26,08,36,15.30
2015,08,26,08,37,15.40
2015,08,26,08,38,15.40
2015,08,26,08,39,15.50
2015,08,26,08,40,15.50
2015,08,26,08,41,15.60
2015,08,26,08,42,15.60
2015,08,26,08,43,15.70
2015,08,26,08,44,15.70
2015,08,26,08,45,15.80
2015,08,26,08,46,15.80
2015,08,26,08,47,15.90
2015,08,26,08,48,15.90
2015,08,26,08,49,15.90
2015,08,26,08,50,16.00
2015,08,26,08,51,16.10
2015,08,26,08,52,16.10
2015,08,26,08,53,16.20
2015,08,26,08,54,16.20
2015,08,26,08,55,16.30
2015,08,26,08,56,16.40
2015,08,26,08,57,16.40
2015,08,26,08,58,16.40
2015,08,26,08,59,16.50
2015,08,26,09,00,16.50
2015,08,26,09,01,16.60
2015,08,26,09,02,16.60
2015,08,26,09,03,16.60
2015,08,26,09,04,16.70
2015,08,26,09,05,16.80
2015,08,26,09,06,16.80
2015,08,26,09,07,16.90
2015,08,26,09,08,17.00
2015,08,26,09,09,17.00
2015,08,26,09,10,17.10
2015,08,26,09,11,17.20
2015,08,26,09,12,17.30
2015,08,26,09,13,17.40
2015,08,26,09,14,17.40
2015,08,26,09,15,17.50
2015,08,26,09,16,17.60
2015,08,26,09,17,17.60
2015,08,26,09,18,17.60
2015,08,26,09,19,17.60
2015,08,26,09,20,17.60
2015,08,26,09,21,17.60
2015,08,26,09,22,17.70
2015,08,26,09,23,17.70
2015,08,26,09,24,17.70
2015,08,26,09,25,17.80
2015,08,26,09,26,17.80
2015,08,26,09,27,17.90
2015,08,26,09,28,18.00
2015,08,26,09,29,18.00
2015,08,26,09,30,18.00
2015,08,26,09,31,17.90
2015,08,26,09,32,17.90
2015,08,26,09,33,17.90
2015,08,26,09,34,18.00
2015,08,26,09,35,17.90
2015,08,26,09,36,17.90
2015,08,26,09,37,17.90
2015,08,26,09,38,17.90
2015,08,26,09,39,17.80
2015,08,26,09,40,17.80
2015,08,26,09,41,17.80
2015,08,26,09,42,17.80
2015,08,26,09,43,17.80
2015,08,26,09,44,17.80
2015,08,26,09,45,17.90
2015,08,26,09,46,17.90
2015,08,26,09,47,17.90
2015,08,26,09,48,17.90
2015,08,26,09,49,17.90
2015,08,26,09,50,18.00
2015,08,26,09,51,18.20
2015,08,26,09,52,18.30
2015,08,26,09,53,18.40
2015,08,26,09,54,18.60
2015,08,26,09,55,18.70
2015,08,26,09,56,18.80
2015,08,26,09,57,19.00
2015,08,26,09,58,19.10
2015,08,26,09,59,19.20
2015,08,26,10,00,19.30
2015,08,26,10,01,19.30
2015,08,26,10,02,19.30
2015,08,26,10,03,19.30
2015,08,26,10,04,19.40
2015,08,26,10,05,19.50
2015,08,26,10,06,19.60
2015,08,26,10,07,19.70
2015,08,26,10,08,19.80
2015,08,26,10,09,19.90
2015,08,26,10,10,19.90
2015,08,26,10,11,19.80
2015,08,26,10,12,19.80
2015,08,26,10,13,19.70
2015,08,26,10,14,19.40
2015,08,26,10,15,19.20
2015,08,26,10,16,19.10
2015,08,26,10,17,19.00
2015,08,26,10,18,19.00
2015,08,26,10,19,19.00
2015,08,26,10,20,19.00
2015,08,26,10,21,18.90
2015,08,26,10,22,18.90
2015,08,26,10,23,18.90
2015,08,26,10,24,18.80
2015,08,26,10,25,18.60
2015,08,26,10,26,18.40
2015,08,26,10,27,18.20
2015,08,26,10,28,18.00
2015,08,26,10,29,17.70
2015,08,26,10,30,17.50
2015,08,26,10,31,17.30
2015,08,26,10,32,17.30
2015,08,26,10,33,17.30
2015,08,26,10,34,17.30
2015,08,26,10,35,17.30
2015,08,26,10,36,17.30
2015,08,26,10,37,17.20
2015,08,26,10,38,17.10
2015,08,26,10,39,17.10
2015,08,26,10,40,17.10
2015,08,26,10,41,17.20
2015,08,26,10,42,17.20
2015,08,26,10,43,17.30
2015,08,26,10,44,17.50
2015,08,26,10,45,17.60
2015,08,26,10,46,17.60
2015,08,26,10,47,17.70
2015,08,26,10,48,17.80
2015,08,26,10,49,17.80
2015,08,26,10,50,17.90
2015,08,26,10,51,17.90
2015,08,26,10,52,18.00
2015,08,26,10,53,18.10
2015,08,26,10,54,18.20
2015,08,26,10,55,18.30
2015,08,26,10,56,18.30
2015,08,26,10,57,18.30
2015,08,26,10,58,18.30
2015,08,26,10,59,18.30
2015,08,26,11,00,18.40
2015,08,26,11,01,18.50
2015,08,26,11,02,18.60
2015,08,26,11,03,18.70
2015,08,26,11,04,18.80
2015,08,26,11,05,19.00
2015,08,26,11,06,19.10
2015,08,26,11,07,19.20
2015,08,26,11,08,19.20
2015,08,26,11,09,19.30
2015,08,26,11,10,19.40
2015,08,26,11,11,19.40
2015,08,26,11,12,19.40
2015,08,26,11,13,19.40
2015,08,26,11,14,19.50
2015,08,26,11,15,19.40
2015,08,26,11,16,19.40
2015,08,26,11,17,19.40
2015,08,26,11,18,19.40
2015,08,26,11,19,19.20
2015,08,26,11,20,19.10
2015,08,26,11,21,19.10
2015,08,26,11,22,19.00
2015,08,26,11,23,18.80
2015,08,26,11,24,18.60
2015,08,26,11,25,18.60
2015,08,26,11,26,18.60
2015,08,26,11,27,18.60
2015,08,26,11,28,18.70
2015,08,26,11,29,18.80
2015,08,26,11,30,18.90
2015,08,26,11,31,19.10
2015,08,26,11,32,19.20
2015,08,26,11,33,19.30
2015,08,26,11,34,19.40
2015,08,26,11,35,19.50
2015,08,26,11,36,19.60
2015,08,26,11,37,19.70
2015,08,26,11,38,19.70
2015,08,26,11,39,19.60
2015,08,26,11,40,19.60
2015,08,26,11,41,19.60
2015,08,26,11,42,19.70
2015,08,26,11,43,19.80
2015,08,26,11,44,19.90
2015,08,26,11,45,20.10
2015,08,26,11,46,20.20
2015,08,26,11,47,20.30
2015,08,26,11,48,20.50
2015,08,26,11,49,20.60
2015,08,26,11,50,20.70
2015,08,26,11,51,20.90
2015,08,26,11,52,20.90
2015,08,26,11,53,20.90
2015,08,26,11,54,20.80
2015,08,26,11,55,20.70
2015,08,26,11,56,20.50
2015,08,26,11,57,20.30
2015,08,26,11,58,20.30
2015,08,26,11,59,20.30
2015,08,26,12,00,20.40
2015,08,26,12,01,20.50
2015,08,26,12,02,20.60
2015,08,26,12,03,20.70
2015,08,26,12,04,20.60
2015,08,26,12,05,20.50
2015,08,26,12,06,20.40
2015,08,26,12,07,20.40
2015,08,26,12,08,20.30
2015,08,26,12,09,20.30
2015,08,26,12,10,20.20
2015,08,26,12,11,20.20
2015,08,26,12,12,20.20
2015,08,26,12,13,20.20
2015,08,26,12,14,20.20
2015,08,26,12,15,20.20
2015,08,26,12,16,20.30
2015,08,26,12,17,20.30
2015,08,26,12,18,20.30
2015,08,26,12,19,20.20
2015,08,26,12,20,20.20
2015,08,26,12,21,20.20
2015,08,26,12,22,20.20
2015,08,26,12,23,20.20
2015,08,26,12,24,20.30
2015,08,26,12,25,20.30
2015,08,26,12,26,20.40
2015,08,26,12,27,20.50
2015,08,26,12,28,20.60
2015,08,26,12,29,20.60
2015,08,26,12,30,20.70
2015,08,26,12,31,20.80
2015,08,26,12,32,20.90
2015,08,26,12,33,21.00
2015,08,26,12,34,21.20
2015,08,26,12,35,21.30
2015,08,26,12,36,21.40
2015,08,26,12,37,21.50
2015,08,26,12,38,21.50
2015,08,26,12,39,21.60
2015,08,26,12,40,21.50
2015,08,26,12,41,21.40
2015,08,26,12,42,21.30
2015,08,26,12,43,21.30
2015,08,26,12,44,21.40
2015,08,26,12,45,21.50
2015,08,26,12,46,21.60
2015,08,26,12,47,21.60
2015,08,26,12,48,21.50
2015,08,26,12,49,21.50
2015,08,26,12,50,21.50
2015,08,26,12,51,21.40
2015,08,26,12,52,21.40
2015,08,26,12,53,21.50
2015,08,26,12,54,21.50
2015,08,26,12,55,21.50
2015,08,26,12,56,21.50
2015,08,26,12,57,21.40
2015,08,26,12,58,21.30
2015,08,26,12,59,21.20
2015,08,26,13,00,21.20
2015,08,26,13,01,21.20
2015,08,26,13,02,21.10
2015,08,26,13,03,21.10
2015,08,26,13,04,21.00
2015,08,26,13,05,21.00
2015,08,26,13,06,21.00
2015,08,26,13,07,21.00
2015,08,26,13,08,21.10
2015,08,26,13,09,21.10
2015,08,26,13,10,21.00
2015,08,26,13,11,21.00
2015,08,26,13,12,20.90
2015,08,26,13,13,20.90
2015,08,26,13,14,20.90
2015,08,26,13,15,20.90
2015,08,26,13,16,20.80
2015,08,26,13,17,20.80
2015,08,26,13,18,20.80
2015,08,26,13,19,20.70
2015,08,26,13,20,20.70
2015,08,26,13,21,20.70
2015,08,26,13,22,20.80
2015,08,26,13,23,20.80
2015,08,26,13,24,20.90
2015,08,26,13,25,21.10
2015,08,26,13,26,21.20
2015,08,26,13,27,21.30
2015,08,26,13,28,21.30
2015,08,26,13,29,21.40
2015,08,26,13,30,21.30
2015,08,26,13,31,21.20
2015,08,26,13,32,21.20
2015,08,26,13,33,21.30
2015,08,26,13,34,21.30
2015,08,26,13,35,21.30
2015,08,26,13,36,21.30
2015,08,26,13,37,21.40
2015,08,26,13,38,21.50
2015,08,26,13,39,21.60
2015,08,26,13,40,21.70
2015,08,26,13,41,21.80
2015,08,26,13,42,21.80
2015,08,26,13,43,21.90
2015,08,26,13,44,21.80
2015,08,26,13,45,21.80
2015,08,26,13,46,21.80
2015,08,26,13,47,21.80
2015,08,26,13,48,21.90
2015,08,26,13,49,22.00
2015,08,26,13,50,22.10
2015,08,26,13,51,22.20
2015,08,26,13,52,22.40
2015,08,26,13,53,22.60
2015,08,26,13,54,22.70
2015,08,26,13,55,22.60
2015,08,26,13,56,22.60
2015,08,26,13,57,22.50
2015,08,26,13,58,22.50
2015,08,26,13,59,22.60
2015,08,26,14,00,22.70
2015,08,26,14,01,22.70
2015,08,26,14,02,22.60
2015,08,26,14,03,22.60
2015,08,26,14,04,22.50
2015,08,26,14,05,22.50
2015,08,26,14,06,22.40
2015,08,26,14,07,22.40
2015,08,26,14,08,22.40
2015,08,26,14,09,22.30
2015,08,26,14,10,22.10
2015,08,26,14,11,21.90
2015,08,26,14,12,21.70
2015,08,26,14,13,21.60
2015,08,26,14,14,21.40
2015,08,26,14,15,21.30
2015,08,26,14,16,21.30
2015,08,26,14,17,21.40
2015,08,26,14,18,21.50
2015,08,26,14,19,21.60
2015,08,26,14,20,21.50
2015,08,26,14,21,21.30
2015,08,26,14,22,21.20
2015,08,26,14,23,21.10
2015,08,26,14,24,21.00
2015,08,26,14,25,21.00
2015,08,26,14,26,21.00
2015,08,26,14,27,20.90
2015,08,26,14,28,20.90
2015,08,26,14,29,20.90
2015,08,26,14,30,20.90
2015,08,26,14,31,20.90
2015,08,26,14,32,21.00
2015,08,26,14,33,21.10
2015,08,26,14,34,21.30
2015,08,26,14,35,21.30
2015,08,26,14,36,21.40
2015,08,26,14,37,21.40
2015,08,26,14,38,21.40
2015,08,26,14,39,21.40
2015,08,26,14,40,21.40
2015,08,26,14,41,21.40
2015,08,26,14,42,21.50
2015,08,26,14,43,21.60
2015,08,26,14,44,21.80
2015,08,26,14,45,21.90
2015,08,26,14,46,22.10
2015,08,26,14,47,22.30
2015,08,26,14,48,22.30
2015,08,26,14,49,22.40
2015,08,26,14,50,22.40
2015,08,26,14,51,22.30
2015,08,26,14,52,22.30
2015,08,26,14,53,22.20
2015,08,26,14,54,22.20
2015,08,26,14,55,22.30
2015,08,26,14,56,22.40
2015,08,26,14,57,22.50
2015,08,26,14,58,22.70
2015,08,26,14,59,22.80
2015,08,26,15,00,22.80
2015,08,26,15,01,22.80
2015,08,26,15,02,22.80
2015,08,26,15,03,22.80
2015,08,26,15,04,22.80
2015,08,26,15,05,22.70
2015,08,26,15,06,22.70
2015,08,26,15,07,22.70
2015,08,26,15,08,22.80
2015,08,26,15,09,22.80
2015,08,26,15,10,22.80
2015,08,26,15,11,22.80
2015,08,26,15,12,22.80
2015,08,26,15,13,22.90
2015,08,26,15,14,22.90
2015,08,26,15,15,22.90
2015,08,26,15,16,22.90
2015,08,26,15,17,23.00
2015,08,26,15,18,23.10
2015,08,26,15,19,23.20
2015,08,26,15,20,23.20
2015,08,26,15,21,23.20
2015,08,26,15,22,23.20
2015,08,26,15,23,23.10
2015,08,26,15,24,23.10
2015,08,26,15,25,23.10
2015,08,26,15,26,23.00
2015,08,26,15,27,22.90
2015,08,26,15,28,22.90
2015,08,26,15,29,22.90
2015,08,26,15,30,23.00
2015,08,26,15,31,23.10
2015,08,26,15,32,23.00
2015,08,26,15,33,23.00
2015,08,26,15,34,23.00
2015,08,26,15,35,23.00
2015,08,26,15,36,22.90
2015,08,26,15,37,22.90
2015,08,26,15,38,22.90
2015,08,26,15,39,22.90
2015,08,26,15,40,22.90
2015,08,26,15,41,22.90
2015,08,26,15,42,22.80
2015,08,26,15,43,22.80
2015,08,26,15,44,22.70
2015,08,26,15,45,22.60
2015,08,26,15,46,22.60
2015,08,26,15,47,22.50
2015,08,26,15,48,22.40
2015,08,26,15,49,22.30
2015,08,26,15,50,22.20
2015,08,26,15,51,22.10
2015,08,26,15,52,22.10
2015,08,26,15,53,22.10
2015,08,26,15,54,22.10
2015,08,26,15,55,22.20
2015,08,26,15,56,22.20
2015,08,26,15,57,22.20
2015,08,26,15,58,22.30
2015,08,26,15,59,22.40
2015,08,26,16,00,22.50
2015,08,26,16,01,22.70
2015,08,26,16,02,22.70
2015,08,26,16,03,22.80
2015,08,26,16,04,22.80
2015,08,26,16,05,22.80
2015,08,26,16,06,22.70
2015,08,26,16,07,22.70
2015,08,26,16,08,22.70
2015,08,26,16,09,22.70
2015,08,26,16,10,22.60
2015,08,26,16,11,22.50
2015,08,26,16,12,22.40
2015,08,26,16,13,22.20
2015,08,26,16,14,22.20
2015,08,26,16,15,22.20
2015,08,26,16,16,22.20
2015,08,26,16,17,22.20
2015,08,26,16,18,22.20
2015,08,26,16,19,22.20
2015,08,26,16,20,22.20
2015,08,26,16,21,22.30
2015,08,26,16,22,22.40
2015,08,26,16,23,22.60
2015,08,26,16,24,22.70
2015,08,26,16,25,22.90
2015,08,26,16,26,23.00
2015,08,26,16,27,23.10
2015,08,26,16,28,23.20
2015,08,26,16,29,23.30
2015,08,26,16,30,23.40
2015,08,26,16,31,23.50
2015,08,26,16,32,23.50
2015,08,26,16,33,23.60
2015,08,26,16,34,23.60
2015,08,26,16,35,23.70
2015,08,26,16,36,23.80
2015,08,26,16,37,23.80
2015,08,26,16,38,23.80
2015,08,26,16,39,23.90
2015,08,26,16,40,23.80
2015,08,26,16,41,23.60
2015,08,26,16,42,23.40
2015,08,26,16,43,23.30
2015,08,26,16,44,23.10
2015,08,26,16,45,22.90
2015,08,26,16,46,22.70
2015,08,26,16,47,22.40
2015,08,26,16,48,22.00
2015,08,26,16,49,21.60
2015,08,26,16,50,21.30
2015,08,26,16,51,21.20
2015,08,26,16,52,21.00
2015,08,26,16,53,21.00
2015,08,26,16,54,21.10
2015,08,26,16,55,21.20
2015,08,26,16,56,21.30
2015,08,26,16,57,21.50
2015,08,26,16,58,21.70
2015,08,26,16,59,21.90
2015,08,26,17,00,22.00
2015,08,26,17,01,22.10
2015,08,26,17,02,22.20
2015,08,26,17,03,22.20
2015,08,26,17,04,22.30
2015,08,26,17,05,22.20
2015,08,26,17,06,22.10
2015,08,26,17,07,22.00
2015,08,26,17,08,22.00
2015,08,26,17,09,22.00
2015,08,26,17,10,22.00
2015,08,26,17,11,22.10
2015,08,26,17,12,22.10
2015,08,26,17,13,22.20
2015,08,26,17,14,22.20
2015,08,26,17,15,22.30
2015,08,26,17,16,22.30
2015,08,26,17,17,22.30
2015,08,26,17,18,22.40
2015,08,26,17,19,22.30
2015,08,26,17,20,22.30
2015,08,26,17,21,22.20
2015,08,26,17,22,22.10
2015,08,26,17,23,22.10
2015,08,26,17,24,21.90
2015,08,26,17,25,21.80
2015,08,26,17,26,21.70
2015,08,26,17,27,21.60
2015,08,26,17,28,21.50
2015,08,26,17,29,21.40
2015,08,26,17,30,21.40
2015,08,26,17,31,21.30
2015,08,26,17,32,21.20
2015,08,26,17,33,21.10
2015,08,26,17,34,21.00